Weather in Yenisey

Russia / Irkutsk Oblast     53°21′24″N   104°08′55″E
temp.,
°C
wind,
m/s
gust,
m/s
humid.,
%
clouds,
%
prec.,
mm/h
press.,
hPa
HPBL,
m
6 march, sat
sat623:00−18ese22901 0.0 102620
02:00−15ese129151 0.0 102746
05:00−15sse1291100 0.0 102720
08:00−18se119372 0.0 102920
11:00−11s128996 0.0 1028190
14:00−4ssw238994 0.0 1025348
17:00−3s259162 0.0 1023368
20:00−9se228838 0.0 102421
7 march, sun
sun723:00−10ese228757 0.0 102421
02:00−10ese228767 0.0 102221
05:00−11ese128735 0.0 102021
08:00−12ese128346 0.0 102021
11:00−4sse258163 0.0 1018292
14:00−1sse358879 0.0 1016348
17:000sse258782 0.0 1014321
20:00−6se128871 0.0 101721
8 march, mon
mon823:00−7ne1187100 0.0 101921
02:00−6ene0188100 0.0 102021
05:00−10sw119443 0.0 102221
08:00−8nw239772 0.3 1025109
11:00−7nnw3890100 0.3 1027716
14:00−6wnw3686100 0.4 1027670
17:00−6wnw128232 0.0 1026443
20:00−12se118816 0.0 102821
9 march, tue
tue923:00−13e228721 0.0 102621
02:00−11e228859 0.0 102329
05:00−12e228949 0.0 102123
08:00−12e229069 0.0 102121
11:00−4s138697 0.0 1021299
14:00−2ssw009198 0.0 1020247
17:00−1wsw1189100 0.0 1021209
20:00−7sw119379 0.0 102421
10 march, wed
wed1023:00−8ene119560 0.0 102621
02:00−9ese119364 0.1 102721
05:00−9e119558 0.0 102721
08:00−10e229135 0.0 102621
11:00−2se26880 0.0 1023372
14:000sse38950 0.0 1019616
17:00+1sse26990 0.0 1017480
20:00−5se12909 0.0 101921